Location: Tamazert
(32.6352°N, 5.2072°W)
Time: 16:53:52
(UTC+00:00)

Transit 2A Rocket - Pass Details

Date: 07 October 2022
Orbit: 589 x 912 km, 66.7° (Epoch: 07 December)

Event Time Altitude Azimuth Distance (km) Brightness Sun altitude
Rises 14:40:05 0° 328° (NNW) 3,096 8.1 37.5°
Reaches altitude 10° 14:42:22 10° 323° (NW) 2,223 7.5 37.1°
Maximum altitude 14:47:19 53° 248° (WSW) 950 7.2 36.3°
Drops below altitude 10° 14:52:43 10° 172° (S) 2,422 8.0 35.4°
Sets 14:55:19 0° 168° (SSE) 3,398 8.6 35.0°
